Location: Beccas
(43.4309°N, 0.1528°E)
Time: 14:54:50
(UTC+00:00)

Transit 2A Rocket - Pass Details

Date: 02 June 2022
Orbit: 593 x 908 km, 66.7° (Epoch: 30 June)

Event Time Altitude Azimuth Distance (km) Brightness Sun altitude
Rises 20:35:08 0° 325° (NW) 2,898 9.9 -9.6°
Reaches altitude 10° 20:37:26 10° 323° (NW) 1,963 8.7 -9.9°
Maximum altitude 20:41:45 63° 243° (WSW) 668 4.8 -10.4°
Enters shadow 20:45:37 12° 163° (SSE) 1,778 6.4 -10.9°
